Date String (YYYY-MM-DD hh:mm:ss) UTC,Instrument flags,Ambient pressure (hPa),Sample flow (lpm),Bypass flow (lpm),Sample temperature (°C),Ambient temperature (°C),ASC tube jacket temperature (°C),LED temperature (°C),Box temperature (°C),Sample RH (%),Span deviation,Mass concentration (μg/m³),Mass concentration (μg/m³),Mass concentration (μg/m³)
DateTimeUTC,F1_M11,P_M11,Q1_M11,Q2_M11,T1_M11,T2_M11,T3_M11,T4_M11,T5_M11,U1_M11,ZSPAN_M11,X0_M11,X2_M11,X1_M11
2021-12-11 08:00:00,,0821.3,5.01,0.00,21.9,21.5,00.0,31.0,23.3,04.3,0000.0,0007.17,0001.58,0000.82
2021-12-11 08:01:00,,0821.4,4.98,0.00,21.8,21.2,00.0,31.0,23.2,04.3,0000.0,0007.13,0001.56,0000.82
2021-12-11 08:02:00,,0821.3,5.00,0.00,21.7,20.9,00.0,31.0,23.0,04.4,0000.0,0006.98,0001.53,0000.80
2021-12-11 08:03:00,,0821.3,5.02,0.00,21.6,20.9,00.0,30.9,23.0,04.4,0000.0,0004.08,0001.50,0000.80
2021-12-11 08:04:00,,0821.4,4.98,0.00,21.7,21.7,00.0,30.9,23.3,04.3,0000.0,0003.86,0001.45,0000.80
2021-12-11 08:05:00,,0821.4,5.00,0.00,21.9,22.5,00.0,31.0,23.7,04.2,0000.0,0003.92,0001.43,0000.80
2021-12-11 08:06:00,,0821.4,5.00,0.00,22.1,23.2,00.0,31.0,24.0,04.3,0000.0,0003.85,0001.43,0000.80
2021-12-11 08:07:00,,0821.4,4.99,0.00,22.2,23.2,00.0,31.1,24.1,04.3,0000.0,0003.79,0001.40,0000.79
2021-12-11 08:08:00,,0821.4,5.00,0.00,22.2,22.7,00.0,31.1,23.9,04.2,0000.0,0003.88,0001.39,0000.79
2021-12-11 08:09:00,,0821.3,5.01,0.00,22.1,22.3,00.0,31.1,23.7,04.2,0000.0,0003.92,0001.38,0000.79
2021-12-11 08:10:00,,0821.2,4.99,0.00,22.0,21.9,00.0,31.0,23.5,04.2,0000.0,0004.01,0001.38,0000.80
2021-12-11 08:11:00,,0821.2,5.00,0.00,21.9,21.5,00.0,31.0,23.3,04.2,0000.0,0004.78,0001.43,0000.82
2021-12-11 08:12:00,,0821.2,5.01,0.00,21.8,21.1,00.0,31.0,23.2,04.2,0000.0,0005.83,0001.51,0000.83
2021-12-11 08:13:00,,0821.2,5.00,0.00,21.7,21.0,00.0,31.0,23.1,04.3,0000.0,0005.78,0001.55,0000.85
2021-12-11 08:14:00,,0821.2,4.99,0.00,21.8,21.6,00.0,31.0,23.4,04.2,0000.0,0005.67,0001.55,0000.85
2021-12-11 08:15:00,,0821.4,5.00,0.00,21.9,22.4,00.0,31.0,23.7,04.2,0000.0,0005.53,0001.58,0000.85
2021-12-11 08:16:00,,0821.3,5.02,0.00,22.1,23.1,00.0,31.1,24.0,04.2,0000.0,0005.34,0001.60,0000.86
2021-12-11 08:17:00,,0821.3,4.99,0.00,22.2,23.2,00.0,31.1,24.1,04.2,0000.0,0005.43,0001.62,0000.86
2021-12-11 08:18:00,,0821.3,4.99,0.00,22.2,22.7,00.0,31.1,23.9,04.1,0000.0,0005.54,0001.66,0000.88
2021-12-11 08:19:00,,0821.3,5.01,0.00,22.0,22.2,00.0,31.1,23.6,04.1,0000.0,0005.55,0001.67,0000.89
2021-12-11 08:20:00,,0821.2,4.98,0.00,21.9,21.7,00.0,31.0,23.4,04.2,0000.0,0005.40,0001.69,0000.90
2021-12-11 08:21:00,,0821.1,5.01,0.00,21.9,21.3,00.0,31.0,23.3,04.1,0000.0,0005.44,0001.70,0000.90
2021-12-11 08:22:00,,0821.3,5.01,0.00,21.8,21.0,00.0,31.0,23.2,04.0,0000.0,0004.87,0001.70,0000.90
2021-12-11 08:23:00,,0821.4,5.01,0.00,21.7,20.9,00.0,31.0,23.1,04.1,0000.0,0003.69,0001.61,0000.89
2021-12-11 08:24:00,,0821.4,4.99,0.00,21.8,21.5,00.0,31.0,23.3,04.2,0000.0,0003.45,0001.54,0000.88
2021-12-11 08:25:00,,0821.4,5.01,0.00,21.9,22.3,00.0,31.0,23.7,04.2,0000.0,0004.10,0001.51,0000.88
2021-12-11 08:26:00,,0821.4,5.01,0.00,22.1,23.0,00.0,31.0,24.0,04.1,0000.0,0004.61,0001.50,0000.89
2021-12-11 08:27:00,,0821.5,4.99,0.00,22.2,23.2,00.0,31.1,24.1,04.1,0000.0,0004.54,0001.47,0000.89
2021-12-11 08:28:00,,0821.5,5.01,0.00,22.2,22.7,00.0,31.1,23.9,04.1,0000.0,0004.51,0001.46,0000.89
2021-12-11 08:29:00,,0821.3,4.99,0.00,22.1,22.3,00.0,31.1,23.7,04.1,0000.0,0004.48,0001.40,0000.88
2021-12-11 08:30:00,,0821.3,5.00,0.00,22.0,21.9,00.0,31.1,23.5,04.0,0000.0,0004.43,0001.40,0000.87
2021-12-11 08:31:00,,0821.4,5.00,0.00,21.9,21.5,00.0,31.0,23.3,04.1,0000.0,0004.25,0001.37,0000.85
2021-12-11 08:32:00,,0821.4,5.00,0.00,21.8,21.2,00.0,31.0,23.1,04.1,0000.0,0004.22,0001.39,0000.86
2021-12-11 08:33:00,,0821.4,5.01,0.00,21.7,21.0,00.0,31.0,23.1,04.2,0000.0,0004.83,0001.37,0000.86
2021-12-11 08:34:00,,0821.4,5.00,0.00,21.8,21.5,00.0,31.0,23.3,04.1,0000.0,0004.95,0001.37,0000.86
2021-12-11 08:35:00,,0821.4,5.01,0.00,21.9,22.3,00.0,31.0,23.6,04.1,0000.0,0005.09,0001.42,0000.86
2021-12-11 08:36:00,,0821.5,4.99,0.00,22.1,23.0,00.0,31.1,24.0,04.2,0000.0,0004.58,0001.47,0000.85
2021-12-11 08:37:00,,0821.4,5.02,0.00,22.2,23.4,00.0,31.1,24.2,04.2,0000.0,0003.92,0001.46,0000.84
2021-12-11 08:38:00,,0821.4,4.99,0.00,22.3,23.0,00.0,31.1,24.1,04.1,0000.0,0004.08,0001.49,0000.84
2021-12-11 08:39:00,,0821.4,5.00,0.00,22.2,22.5,00.0,31.1,23.9,04.2,0000.0,0004.10,0001.46,0000.84
2021-12-11 08:40:00,,0821.4,5.01,0.00,22.1,22.2,00.0,31.1,23.7,04.2,0000.0,0004.05,0001.46,0000.84
2021-12-11 08:41:00,,0821.4,4.99,0.00,22.1,21.8,00.0,31.1,23.5,04.1,0000.0,0005.39,0001.45,0000.84
2021-12-11 08:42:00,,0821.4,5.00,0.00,22.0,21.5,00.0,31.1,23.4,04.1,0000.0,0005.66,0001.43,0000.85
2021-12-11 08:43:00,,0821.4,5.01,0.00,21.9,21.3,00.0,31.1,23.2,04.1,0000.0,0006.31,0001.46,0000.84
2021-12-11 08:44:00,,0821.5,4.99,0.00,21.8,21.1,00.0,31.0,23.1,04.2,0000.0,0005.90,0001.46,0000.83
2021-12-11 08:45:00,,0821.4,5.01,0.00,21.8,21.5,00.0,31.0,23.3,04.4,0000.0,0006.89,0001.43,0000.83
2021-12-11 08:46:00,,0821.6,5.00,0.00,22.0,22.3,00.0,31.1,23.7,04.4,0000.0,0007.61,0001.40,0000.82
2021-12-11 08:47:00,,0821.6,4.99,0.00,22.2,23.1,00.0,31.1,24.1,04.5,0000.0,0007.75,0001.40,0000.82
2021-12-11 08:48:00,,0821.6,5.00,0.00,22.3,23.3,00.0,31.1,24.2,04.4,0000.0,0007.78,0001.40,0000.83
2021-12-11 08:49:00,,0821.6,4.99,0.00,22.3,22.8,00.0,31.2,24.1,04.4,0000.0,0007.72,0001.37,0000.83
2021-12-11 08:50:00,,0821.5,5.00,0.00,22.2,22.5,00.0,31.2,23.9,04.4,0000.0,0007.79,0001.43,0000.84
2021-12-11 08:51:00,,0821.4,5.00,0.00,22.2,22.1,00.0,31.2,23.7,04.4,0000.0,0007.86,0001.46,0000.84
2021-12-11 08:52:00,,0821.5,4.99,0.00,22.1,21.7,00.0,31.1,23.6,04.0,0000.0,0007.18,0001.45,0000.83
2021-12-11 08:53:00,,0821.6,5.02,0.00,22.0,21.4,00.0,31.1,23.5,04.2,0000.0,0006.52,0001.49,0000.83
2021-12-11 08:54:00,,0821.6,5.00,0.00,21.9,21.2,00.0,31.1,23.3,04.4,0000.0,0006.22,0001.47,0000.83
2021-12-11 08:55:00,,0821.7,4.99,0.00,21.8,21.0,00.0,31.1,23.2,04.5,0000.0,0005.53,0001.41,0000.84
2021-12-11 08:56:00,,0821.8,5.01,0.00,21.8,21.1,00.0,31.0,23.2,04.3,0000.0,0004.71,0001.39,0000.83
2021-12-11 08:57:00,,0821.7,4.99,0.00,21.9,21.8,00.0,31.0,23.5,04.5,0000.0,0004.05,0001.38,0000.82
2021-12-11 08:58:00,,0821.7,5.00,0.00,22.0,22.7,00.0,31.1,23.8,04.4,0000.0,0005.12,0001.33,0000.83
2021-12-11 08:59:00,,0821.8,5.01,0.00,22.2,23.3,00.0,31.1,24.2,04.3,0000.0,0005.04,0001.33,0000.82
